Location: Edinburgh
(55.9500°N, 3.1600°W)
Time: 10:23:34
(UTC+01:00)

Envisat - Pass Details

Date: 24 February 2019
Orbit: 764 x 766 km, 98.1° (Epoch: 19 October)

Event Time Altitude Azimuth Distance (km) Brightness Sun altitude
Rises 19:45:16 0° 198° (SSW) 3,222 6.3 -18.8°
Reaches altitude 10° 19:47:53 10° 211° (SSW) 2,301 5.7 -19.2°
Maximum altitude 19:52:11 27° 269° (W) 1,442 5.2 -19.7°
Drops below altitude 10° 19:56:30 10° 327° (NNW) 2,315 6.1 -20.3°
Sets 19:59:09 0° 339° (NNW) 3,246 6.7 -20.7°
